Svalbard, Norway

12:37 AM CEST on March 30, 2017 (GMT +0200)
Longyear

Weather History for ENSB - November, 2012

Change the Weather History Date:

Thursday, November 15, 2012

  Actual Average Record
Temperature  
Mean Temperature 17 °F -  
Max Temperature 20 °F 20 °F 37 °F (2016)
Min Temperature 14 °F 11 °F 0 °F (2001)
Degree Days  
Heating Degree Days 48    
Moisture  
Dew Point 9 °F    
Average Humidity 68    
Maximum Humidity 79    
Minimum Humidity 55    
Precipitation  
Precipitation 0.00 in 0.02 in - ()
Sea Level Pressure  
Sea Level Pressure 29.60 in    
Wind  
Wind Speed 12 mph ()    
Max Wind Speed 16 mph    
Max Gust Speed -    
Visibility 6.2 miles    
Events      
Averages and records for this station are not official NWS values.
T = Trace of Precipitation, MM = Missing Value Source: Averaged Metar Reports

Daily Weather History Graph

Daily Weather History Graph

Search for Another Location

Airport or City:

Trip Planner

Search our weather history database for the weather conditions in past years. The results will help you decide how hot, cold, wet, or windy it might be!

Date:

Astronomy

Jan. 01, 1970 Rise Set
Actual Time Sun does not rise Sun does not rise
Civil Twilight 11:10 AM CET 12:15 PM CET
Nautical Twilight 7:53 AM CET 3:29 PM CET
Astronomical Twilight 5:46 AM CET 5:36 PM CET
Moon No Moon Rise No Moon Set
Length of Visible Light 1h 04m
Length of Day
0h 00m
Waxing Crescent, 4% of the Moon is Illuminated
Nov 15
Waxing Crescent
Nov 20
First Quarter
Nov 28
Full
Dec 6
Last Quarter
Dec 13
New

Hourly Weather History & Observations

Time (CET) Temp. Windchill Dew Point Humidity Pressure Visibility Wind Dir Wind Speed Gust Speed Precip Events Conditions
12:50 AM 19.4 °F 6.0 °F 10.4 °F 68% 29.59 in - SE 13.8 mph - N/A   Clear
1:00 AM 20 °F - 11 °F 55% 29.60 in 47 mi SE 13.4 mph - -   Partly Cloudy
1:50 AM 19.4 °F 5.0 °F 10.4 °F 68% 29.56 in - SE 16.1 mph - N/A   Clear
2:50 AM 19.4 °F 5.0 °F 10.4 °F 68% 29.56 in - SE 16.1 mph - N/A   Clear
5:50 AM 21.2 °F 7.3 °F 10.4 °F 63% 29.56 in - SE 16.1 mph - N/A   Clear
6:50 AM 19.4 °F 5.5 °F 10.4 °F 68% 29.56 in 6.2 mi SE 15.0 mph - N/A   Partly Cloudy
7:00 AM 20 °F - 11 °F 57% 29.58 in 47 mi SE 15.7 mph - -   Partly Cloudy
7:50 AM 19.4 °F 5.5 °F 10.4 °F 68% 29.56 in 6.2 mi SE 15.0 mph - N/A   Partly Cloudy
8:50 AM 19.4 °F 6.6 °F 10.4 °F 68% 29.56 in 6.2 mi SSE 12.7 mph - N/A   Partly Cloudy
9:50 AM 19.4 °F 6.6 °F 8.6 °F 63% 29.59 in 6.2 mi SSE 12.7 mph - N/A   Partly Cloudy
10:50 AM 17.6 °F 5.0 °F 8.6 °F 68% 29.59 in 6.2 mi ESE 11.5 mph - N/A   Partly Cloudy
11:50 AM 15.8 °F 2.7 °F 6.8 °F 68% 29.59 in 6.2 mi ESE 11.5 mph - N/A   Partly Cloudy
12:50 PM 14.0 °F -0.2 °F 5.0 °F 67% 29.59 in 6.2 mi ESE 12.7 mph - N/A   Partly Cloudy
1:00 PM 15 °F - 7 °F 60% 29.62 in 47 mi ESE 13.4 mph - -   Partly Cloudy
1:50 PM 15.8 °F 2.7 °F 6.8 °F 68% 29.59 in 6.2 mi ESE 11.5 mph - N/A   Partly Cloudy
2:50 PM 15.8 °F 4.2 °F 6.8 °F 68% 29.62 in 6.2 mi SE 9.2 mph - N/A   Partly Cloudy
3:50 PM 17.6 °F 4.3 °F 6.8 °F 63% 29.62 in 6.2 mi ESE 12.7 mph - N/A   Partly Cloudy
4:50 PM 15.8 °F 3.4 °F 8.6 °F 73% 29.62 in 6.2 mi ESE 10.4 mph - N/A   Partly Cloudy
5:50 PM 15.8 °F 2.1 °F 6.8 °F 68% 29.62 in 6.2 mi ESE 12.7 mph - N/A   Scattered Clouds
6:50 PM 15.8 °F 1.4 °F 8.6 °F 73% 29.62 in 6.2 mi ESE 13.8 mph - N/A   Partly Cloudy
7:00 PM 16 °F - 9 °F 62% 29.66 in 47 mi ESE 13.4 mph - -   Partly Cloudy
7:50 PM 15.8 °F 2.7 °F 8.6 °F 73% 29.65 in 6.2 mi ESE 11.5 mph - N/A   Scattered Clouds
8:50 PM 15.8 °F 0.9 °F 8.6 °F 73% 29.65 in 6.2 mi ESE 15.0 mph - N/A   Scattered Clouds
9:50 PM 17.6 °F 3.7 °F 12.2 °F 79% 29.65 in 6.2 mi ESE 13.8 mph - N/A   Partly Cloudy
10:50 PM 15.8 °F 1.4 °F 8.6 °F 73% 29.65 in 6.2 mi ESE 13.8 mph - N/A   Partly Cloudy
11:50 PM 15.8 °F 2.1 °F 8.6 °F 73% 29.65 in 6.2 mi ESE 12.7 mph - N/A   Partly Cloudy